Location: Unspecified
(34.4950°S, 58.5160°W)
Time: 15:02:14
(UTC+00:00)

Cosmos 1655 Rocket - Pass Details

Date: 04 July 2022
Orbit: 971 x 1005 km, 83.0° (Epoch: 11 August)

Event Time Altitude Azimuth Distance (km) Brightness Sun altitude
Rises 22:52:33 0° 359° (N) 3,710 7.2 -23.4°
Reaches altitude 10° 22:55:04 10° 360° (N) 2,771 6.5 -23.9°
Maximum altitude 23:01:27 81° 86° (E) 1,029 3.9 -25.2°
Enters shadow 23:05:51 22° 170° (S) 2,063 5.5 -26.1°
